| time (UTC) | temp F | wind direction | speed MPH | gust MPH | rain 1hr in | rain 24hr in | rain mn in | humidity % | barometer mb |
| 20260510084604 | 62 | 21 | 0.0 | 1.0 | 0.00 | 0.00 | 0.00 | 49 | 1012.0 |
| 20260510084104 | 62 | 21 | 0.0 | 1.0 | 0.00 | 0.00 | 0.00 | 49 | 1012.1 |
| 20260510083604 | 62 | 20 | 0.0 | 1.0 | 0.00 | 0.00 | 0.00 | 50 | 1012.1 |
| 20260510083106 | 62 | 19 | 0.0 | 1.0 | 0.00 | 0.00 | 0.00 | 50 | 1012.2 |
| 20260510082604 | 63 | 19 | 0.0 | 1.0 | 0.00 | 0.00 | 0.00 | 50 | 1012.3 |
| 20260510082107 | 63 | 19 | 0.0 | 1.0 | 0.00 | 0.00 | 0.00 | 49 | 1012.4 |
| 20260510081104 | 63 | 19 | 0.0 | 1.0 | 0.00 | 0.00 | 0.00 | 49 | 1012.4 |
| 20260510080105 | 63 | 19 | 0.0 | 1.0 | 0.00 | 0.00 | 0.00 | 49 | 1012.4 |
| 20260510075604 | 63 | 19 | 0.0 | 1.0 | 0.00 | 0.00 | 0.00 | 49 | 1012.5 |
| 20260510074605 | 63 | 19 | 0.0 | 1.0 | 0.00 | 0.00 | 0.00 | 49 | 1012.5 |
| 20260510074104 | 63 | 19 | 0.0 | 1.0 | 0.00 | 0.00 | 0.00 | 49 | 1012.6 |
| 20260510073604 | 63 | 19 | 0.0 | 1.0 | 0.00 | 0.00 | 0.00 | 49 | 1012.6 |
| 20260510073104 | 63 | 18 | 0.0 | 1.0 | 0.00 | 0.00 | 0.00 | 48 | 1012.8 |
| 20260510072107 | 63 | 18 | 0.0 | 1.0 | 0.00 | 0.00 | 0.00 | 48 | 1012.8 |
| 20260510071605 | 63 | 18 | 0.0 | 1.0 | 0.00 | 0.00 | 0.00 | 48 | 1012.9 |
| 20260510071105 | 63 | 18 | 0.0 | 1.0 | 0.00 | 0.00 | 0.00 | 48 | 1012.9 |
| 20260510070604 | 63 | 16 | 0.0 | 1.0 | 0.00 | 0.00 | 0.00 | 48 | 1012.9 |
| 20260510070104 | 63 | 16 | 0.0 | 1.0 | 0.00 | 0.00 | 0.00 | 48 | 1012.9 |
| 20260510065604 | 63 | 16 | 0.0 | 1.0 | 0.00 | 0.00 | 0.00 | 47 | 1013.0 |
| 20260510065104 | 63 | 15 | 0.0 | 1.0 | 0.00 | 0.00 | 0.00 | 47 | 1013.0 |
| 20260510064605 | 63 | 15 | 0.0 | 1.0 | 0.00 | 0.00 | 0.00 | 47 | 1013.0 |
| 20260510063604 | 64 | 15 | 0.0 | 1.0 | 0.00 | 0.00 | 0.00 | 47 | 1013.0 |
| 20260510063104 | 64 | 15 | 0.0 | 1.0 | 0.00 | 0.00 | 0.00 | 47 | 1012.9 |
| 20260510062604 | 64 | 15 | 0.0 | 1.0 | 0.00 | 0.00 | 0.00 | 47 | 1012.9 |
| 20260510061103 | 64 | 14 | 0.0 | 1.0 | 0.00 | 0.00 | 0.00 | 47 | 1013.0 |
| 20260510060104 | 65 | 14 | 0.0 | 1.0 | 0.00 | 0.00 | 0.00 | 47 | 1013.0 |
| 20260510055604 | 65 | 14 | 0.0 | 1.0 | 0.00 | 0.00 | 0.00 | 46 | 1013.0 |
| 20260510055104 | 65 | 14 | 0.0 | 1.0 | 0.00 | 0.00 | 0.00 | 46 | 1013.0 |
| 20260510054604 | 66 | 14 | 0.0 | 1.0 | 0.00 | 0.00 | 0.00 | 45 | 1012.9 |
| 20260510054104 | 66 | 14 | 0.0 | 0.0 | 0.00 | 0.00 | 0.00 | 45 | 1012.9 |
| 20260510053604 | 67 | 14 | 0.0 | 0.0 | 0.00 | 0.00 | 0.00 | 44 | 1012.8 |
| 20260510053104 | 67 | 14 | 0.0 | 1.0 | 0.00 | 0.00 | 0.00 | 43 | 1012.8 |
| 20260510052106 | 68 | 14 | 0.0 | 2.0 | 0.00 | 0.00 | 0.00 | 42 | 1012.8 |
| 20260510051604 | 68 | 8 | 0.0 | 1.0 | 0.00 | 0.00 | 0.00 | 41 | 1012.9 |
| 20260510051104 | 68 | 0 | 0.0 | 1.0 | 0.00 | 0.00 | 0.00 | 40 | 1012.9 |
| 20260510050604 | 68 | 0 | 0.0 | 1.0 | 0.00 | 0.00 | 0.00 | 39 | 1012.8 |
| 20260510050104 | 68 | 0 | 0.0 | 1.0 | 0.00 | 0.00 | 0.00 | 40 | 1012.9 |
| 20260510045604 | 68 | 0 | 1.0 | 1.0 | 0.00 | 0.00 | 0.00 | 39 | 1012.8 |
| 20260510045104 | 69 | 355 | 0.0 | 1.0 | 0.00 | 0.00 | 0.00 | 39 | 1012.9 |
| 20260510044104 | 69 | 355 | 0.0 | 1.0 | 0.00 | 0.00 | 0.00 | 39 | 1012.7 |
| 20260510043604 | 70 | 355 | 0.0 | 1.0 | 0.00 | 0.00 | 0.00 | 37 | 1012.7 |
| 20260510042604 | 70 | 350 | 1.0 | 2.0 | 0.00 | 0.00 | 0.00 | 36 | 1012.7 |
| 20260510042105 | 70 | 322 | 1.0 | 1.0 | 0.00 | 0.00 | 0.00 | 35 | 1012.6 |
| 20260510041604 | 71 | 310 | 0.0 | 1.0 | 0.00 | 0.00 | 0.00 | 35 | 1012.5 |
| 20260510041104 | 71 | 302 | 0.0 | 0.0 | 0.00 | 0.00 | 0.00 | 34 | 1012.5 |
| 20260510040605 | 71 | 302 | 0.0 | 1.0 | 0.00 | 0.00 | 0.00 | 34 | 1012.4 |
| 20260510035606 | 71 | 302 | 0.0 | 1.0 | 0.00 | 0.00 | 0.00 | 34 | 1012.4 |
| 20260510035103 | 71 | 300 | 0.0 | 1.0 | 0.00 | 0.00 | 0.00 | 34 | 1012.3 |
| 20260510034604 | 71 | 299 | 0.0 | 1.0 | 0.00 | 0.00 | 0.00 | 37 | 1012.3 |
| 20260510034104 | 71 | 299 | 0.0 | 0.0 | 0.00 | 0.00 | 0.00 | 37 | 1012.3 |
| 20260510033604 | 72 | 299 | 0.0 | 0.0 | 0.00 | 0.00 | 0.00 | 37 | 1012.3 |
| 20260510032604 | 72 | 299 | 0.0 | 2.0 | 0.00 | 0.00 | 0.00 | 36 | 1012.2 |
| 20260510032104 | 72 | 299 | 0.0 | 2.0 | 0.00 | 0.00 | 0.00 | 35 | 1012.2 |
| 20260510031106 | 73 | 308 | 1.0 | 3.0 | 0.00 | 0.00 | 0.00 | 35 | 1011.9 |
| 20260510030604 | 73 | 310 | 1.0 | 3.0 | 0.00 | 0.00 | 0.00 | 34 | 1011.8 |
| 20260510025604 | 73 | 316 | 2.0 | 6.0 | 0.00 | 0.00 | 0.00 | 35 | 1011.7 |
| 20260510025104 | 74 | 322 | 2.0 | 6.0 | 0.00 | 0.00 | 0.00 | 35 | 1011.7 |
| 20260510024604 | 74 | 313 | 3.0 | 6.0 | 0.00 | 0.00 | 0.00 | 34 | 1011.7 |
| 20260510023604 | 75 | 306 | 3.0 | 6.0 | 0.00 | 0.00 | 0.00 | 33 | 1011.6 |
| 20260510023105 | 76 | 305 | 3.0 | 6.0 | 0.00 | 0.00 | 0.00 | 33 | 1011.6 |
| 20260510022605 | 76 | 299 | 3.0 | 6.0 | 0.00 | 0.00 | 0.00 | 33 | 1011.6 |
| 20260510022106 | 77 | 293 | 4.0 | 6.0 | 0.00 | 0.00 | 0.00 | 32 | 1011.6 |
| 20260510021604 | 78 | 305 | 4.0 | 6.0 | 0.00 | 0.00 | 0.00 | 32 | 1011.5 |
| 20260510021104 | 78 | 305 | 3.0 | 6.0 | 0.00 | 0.00 | 0.00 | 32 | 1011.4 |
| 20260510020605 | 78 | 289 | 3.0 | 6.0 | 0.00 | 0.00 | 0.00 | 32 | 1011.3 |
| 20260510020104 | 79 | 297 | 4.0 | 7.0 | 0.00 | 0.00 | 0.00 | 32 | 1011.3 |
| 20260510015604 | 79 | 316 | 5.0 | 8.0 | 0.00 | 0.00 | 0.00 | 31 | 1011.2 |
| 20260510015104 | 79 | 283 | 5.0 | 8.0 | 0.00 | 0.00 | 0.00 | 32 | 1011.2 |
| 20260510014604 | 80 | 289 | 5.0 | 7.0 | 0.00 | 0.00 | 0.00 | 31 | 1011.1 |
| 20260510014104 | 81 | 297 | 5.0 | 7.0 | 0.00 | 0.00 | 0.00 | 31 | 1011.1 |
| 20260510013104 | 81 | 290 | 5.0 | 8.0 | 0.00 | 0.00 | 0.00 | 31 | 1011.1 |
| 20260510012604 | 82 | 304 | 5.0 | 8.0 | 0.00 | 0.00 | 0.00 | 31 | 1011.1 |
| 20260510011603 | 83 | 284 | 6.0 | 8.0 | 0.00 | 0.00 | 0.00 | 30 | 1010.9 |
| 20260510011104 | 83 | 277 | 4.0 | 8.0 | 0.00 | 0.00 | 0.00 | 30 | 1010.9 |
| 20260510010604 | 83 | 267 | 4.0 | 9.0 | 0.00 | 0.00 | 0.00 | 29 | 1010.8 |
| 20260510010105 | 83 | 293 | 6.0 | 10.0 | 0.00 | 0.00 | 0.00 | 29 | 1010.8 |
| 20260510004604 | 84 | 267 | 5.0 | 9.0 | 0.00 | 0.00 | 0.00 | 28 | 1010.6 |
| 20260510004105 | 85 | 267 | 6.0 | 9.0 | 0.00 | 0.00 | 0.00 | 28 | 1010.6 |
| 20260510003605 | 85 | 274 | 5.0 | 9.0 | 0.00 | 0.00 | 0.00 | 27 | 1010.6 |
| 20260510003106 | 85 | 267 | 7.0 | 9.0 | 0.00 | 0.00 | 0.00 | 27 | 1010.6 |
| 20260510002604 | 85 | 254 | 5.0 | 12.0 | 0.00 | 0.00 | 0.00 | 28 | 1010.6 |
| 20260510002106 | 86 | 282 | 6.0 | 12.0 | 0.00 | 0.00 | 0.00 | 26 | 1010.6 |
| 20260510001604 | 86 | 271 | 6.0 | 12.0 | 0.00 | 0.00 | 0.00 | 27 | 1010.6 |
| 20260510001105 | 87 | 320 | 6.0 | 12.0 | 0.00 | 0.00 | 0.00 | 25 | 1010.6 |
| 20260510000104 | 87 | 290 | 6.0 | 12.0 | 0.00 | 0.00 | 0.00 | 24 | 1010.6 |
| 20260509235604 | 87 | 275 | 4.0 | 10.0 | 0.00 | 0.00 | 0.00 | 24 | 1010.5 |
| 20260509235104 | 87 | 263 | 5.0 | 9.0 | 0.00 | 0.00 | 0.00 | 24 | 1010.5 |
| 20260509234104 | 87 | 265 | 5.0 | 12.0 | 0.00 | 0.00 | 0.00 | 24 | 1010.5 |
| 20260509233604 | 87 | 279 | 6.0 | 9.0 | 0.00 | 0.00 | 0.00 | 25 | 1010.4 |
| 20260509232604 | 88 | 308 | 7.0 | 10.0 | 0.00 | 0.00 | 0.00 | 26 | 1010.5 |
| 20260509231104 | 88 | 283 | 6.0 | 12.0 | 0.00 | 0.00 | 0.00 | 24 | 1010.6 |
| 20260509230604 | 89 | 269 | 7.0 | 12.0 | 0.00 | 0.00 | 0.00 | 24 | 1010.6 |
| 20260509230104 | 89 | 281 | 5.0 | 8.0 | 0.00 | 0.00 | 0.00 | 23 | 1010.5 |
| 20260509225604 | 89 | 292 | 5.0 | 9.0 | 0.00 | 0.00 | 0.00 | 23 | 1010.6 |
| 20260509225104 | 89 | 267 | 4.0 | 9.0 | 0.00 | 0.00 | 0.00 | 23 | 1010.6 |
| 20260509224604 | 89 | 267 | 5.0 | 8.0 | 0.00 | 0.00 | 0.00 | 22 | 1010.6 |
| 20260509224104 | 89 | 240 | 3.0 | 10.0 | 0.00 | 0.00 | 0.00 | 20 | 1010.6 |
| 20260509223104 | 89 | 308 | 6.0 | 10.0 | 0.00 | 0.00 | 0.00 | 20 | 1010.6 |
| 20260509222605 | 89 | 307 | 3.0 | 9.0 | 0.00 | 0.00 | 0.00 | 19 | 1010.7 |
| 20260509221604 | 89 | 5 | 0.0 | 8.0 | 0.00 | 0.00 | 0.00 | 21 | 1010.9 |
| 20260509221104 | 89 | 210 | 3.0 | 8.0 | 0.00 | 0.00 | 0.00 | 18 | 1011.1 |
| 20260509220604 | 90 | 275 | 1.0 | 8.0 | 0.00 | 0.00 | 0.00 | 19 | 1011.1 |
| 20260509220104 | 90 | 300 | 3.0 | 6.0 | 0.00 | 0.00 | 0.00 | 20 | 1011.2 |
| 20260509215604 | 90 | 291 | 1.0 | 5.0 | 0.00 | 0.00 | 0.00 | 20 | 1011.1 |
| 20260509215104 | 89 | 315 | 2.0 | 5.0 | 0.00 | 0.00 | 0.00 | 18 | 1011.2 |
| 20260509214605 | 89 | 263 | 2.0 | 7.0 | 0.00 | 0.00 | 0.00 | 19 | 1011.2 |
| 20260509214104 | 88 | 266 | 1.0 | 7.0 | 0.00 | 0.00 | 0.00 | 20 | 1011.2 |
| 20260509213604 | 88 | 291 | 3.0 | 8.0 | 0.00 | 0.00 | 0.00 | 20 | 1011.3 |
| 20260509213104 | 87 | 265 | 4.0 | 8.0 | 0.00 | 0.00 | 0.00 | 22 | 1011.4 |
| 20260509212107 | 87 | 268 | 3.0 | 10.0 | 0.00 | 0.00 | 0.00 | 22 | 1011.6 |
| 20260509211604 | 87 | 273 | 6.0 | 10.0 | 0.00 | 0.00 | 0.00 | 23 | 1011.7 |
| 20260509210604 | 87 | 304 | 3.0 | 8.0 | 0.00 | 0.00 | 0.00 | 23 | 1011.7 |
| 20260509210105 | 87 | 299 | 3.0 | 8.0 | 0.00 | 0.00 | 0.00 | 24 | 1011.7 |
| 20260509205604 | 86 | 295 | 5.0 | 9.0 | 0.00 | 0.00 | 0.00 | 24 | 1011.7 |
| 20260509205104 | 87 | 275 | 4.0 | 9.0 | 0.00 | 0.00 | 0.00 | 24 | 1011.7 |
| 20260509204604 | 87 | 314 | 5.0 | 9.0 | 0.00 | 0.00 | 0.00 | 23 | 1011.7 |
| 20260509204104 | 87 | 299 | 5.0 | 8.0 | 0.00 | 0.00 | 0.00 | 23 | 1011.8 |
| 20260509203604 | 86 | 288 | 2.0 | 8.0 | 0.00 | 0.00 | 0.00 | 25 | 1011.8 |
| 20260509203104 | 86 | 305 | 6.0 | 8.0 | 0.00 | 0.00 | 0.00 | 24 | 1011.9 |
| 20260509202604 | 86 | 311 | 4.0 | 7.0 | 0.00 | 0.00 | 0.00 | 23 | 1011.9 |
| 20260509202106 | 85 | 263 | 5.0 | 9.0 | 0.00 | 0.00 | 0.00 | 24 | 1011.9 |
| 20260509201606 | 85 | 298 | 4.0 | 9.0 | 0.00 | 0.00 | 0.00 | 24 | 1012.0 |
| 20260509201104 | 85 | 299 | 3.0 | 6.0 | 0.00 | 0.00 | 0.00 | 25 | 1012.0 |
| 20260509200604 | 85 | 253 | 5.0 | 7.0 | 0.00 | 0.00 | 0.00 | 24 | 1012.0 |
| 20260509200104 | 85 | 252 | 5.0 | 8.0 | 0.00 | 0.00 | 0.00 | 26 | 1012.0 |
| 20260509195604 | 85 | 277 | 6.0 | 10.0 | 0.00 | 0.00 | 0.00 | 27 | 1012.1 |
| 20260509195104 | 84 | 286 | 3.0 | 10.0 | 0.00 | 0.00 | 0.00 | 26 | 1012.0 |
| 20260509194604 | 84 | 309 | 5.0 | 8.0 | 0.00 | 0.00 | 0.00 | 26 | 1012.2 |
| 20260509194104 | 84 | 260 | 5.0 | 8.0 | 0.00 | 0.00 | 0.00 | 26 | 1012.2 |
| 20260509193103 | 84 | 263 | 4.0 | 8.0 | 0.00 | 0.00 | 0.00 | 25 | 1012.2 |
| 20260509192604 | 84 | 297 | 5.0 | 8.0 | 0.00 | 0.00 | 0.00 | 26 | 1012.3 |
| 20260509192105 | 83 | 302 | 4.0 | 7.0 | 0.00 | 0.00 | 0.00 | 27 | 1012.3 |
| 20260509191604 | 82 | 261 | 3.0 | 8.0 | 0.00 | 0.00 | 0.00 | 27 | 1012.3 |
| 20260509190604 | 82 | 305 | 5.0 | 8.0 | 0.00 | 0.00 | 0.00 | 28 | 1012.3 |
| 20260509185604 | 82 | 315 | 5.0 | 8.0 | 0.00 | 0.00 | 0.00 | 29 | 1012.3 |
| 20260509185104 | 81 | 306 | 4.0 | 9.0 | 0.00 | 0.00 | 0.00 | 30 | 1012.4 |
| 20260509184604 | 81 | 277 | 4.0 | 9.0 | 0.00 | 0.00 | 0.00 | 31 | 1012.4 |
| 20260509184106 | 81 | 307 | 4.0 | 9.0 | 0.00 | 0.00 | 0.00 | 32 | 1012.3 |
| 20260509183604 | 80 | 246 | 5.0 | 9.0 | 0.00 | 0.00 | 0.00 | 31 | 1012.4 |
| 20260509183104 | 80 | 325 | 3.0 | 9.0 | 0.00 | 0.00 | 0.00 | 32 | 1012.4 |
| 20260509182105 | 79 | 270 | 5.0 | 7.0 | 0.00 | 0.00 | 0.00 | 32 | 1012.5 |
| 20260509181606 | 79 | 293 | 4.0 | 7.0 | 0.00 | 0.00 | 0.00 | 35 | 1012.6 |
| 20260509180604 | 78 | 280 | 2.0 | 7.0 | 0.00 | 0.00 | 0.00 | 35 | 1012.7 |
| 20260509180103 | 78 | 298 | 4.0 | 7.0 | 0.00 | 0.00 | 0.00 | 36 | 1012.7 |
| 20260509175603 | 77 | 282 | 3.0 | 7.0 | 0.00 | 0.00 | 0.00 | 37 | 1012.7 |
| 20260509175104 | 77 | 287 | 5.0 | 7.0 | 0.00 | 0.00 | 0.00 | 37 | 1012.7 |
| 20260509174604 | 76 | 266 | 3.0 | 7.0 | 0.00 | 0.00 | 0.00 | 38 | 1012.7 |
| 20260509174104 | 76 | 268 | 3.0 | 7.0 | 0.00 | 0.00 | 0.00 | 39 | 1012.8 |
| 20260509173104 | 76 | 263 | 4.0 | 8.0 | 0.00 | 0.00 | 0.00 | 40 | 1012.8 |
| 20260509172603 | 75 | 252 | 3.0 | 5.0 | 0.00 | 0.00 | 0.00 | 43 | 1012.7 |
| 20260509172105 | 75 | 307 | 3.0 | 6.0 | 0.00 | 0.00 | 0.00 | 44 | 1012.7 |
| 20260509171603 | 74 | 288 | 3.0 | 6.0 | 0.00 | 0.00 | 0.00 | 44 | 1012.6 |
| 20260509171104 | 74 | 299 | 2.0 | 5.0 | 0.00 | 0.00 | 0.00 | 45 | 1012.7 |
| 20260509170604 | 74 | 276 | 2.0 | 5.0 | 0.00 | 0.00 | 0.00 | 45 | 1012.7 |
| 20260509170104 | 73 | 287 | 3.0 | 5.0 | 0.00 | 0.00 | 0.00 | 46 | 1012.7 |
| 20260509165604 | 72 | 283 | 2.0 | 6.0 | 0.00 | 0.00 | 0.00 | 47 | 1012.7 |
| 20260509165104 | 72 | 281 | 3.0 | 6.0 | 0.00 | 0.00 | 0.00 | 46 | 1012.8 |
| 20260509164604 | 72 | 294 | 3.0 | 5.0 | 0.00 | 0.00 | 0.00 | 45 | 1012.8 |
| 20260509164104 | 71 | 292 | 2.0 | 5.0 | 0.00 | 0.00 | 0.00 | 46 | 1012.8 |
| 20260509163604 | 71 | 290 | 2.0 | 5.0 | 0.00 | 0.00 | 0.00 | 42 | 1012.9 |
| 20260509162605 | 69 | 307 | 2.0 | 3.0 | 0.00 | 0.00 | 0.00 | 44 | 1012.7 |
| 20260509162104 | 69 | 307 | 1.0 | 3.0 | 0.00 | 0.00 | 0.00 | 45 | 1012.7 |
| 20260509161606 | 68 | 307 | 1.0 | 3.0 | 0.00 | 0.00 | 0.00 | 47 | 1012.8 |
| 20260509161103 | 67 | 307 | 1.0 | 3.0 | 0.00 | 0.00 | 0.00 | 47 | 1012.8 |
| 20260509160604 | 67 | 307 | 2.0 | 3.0 | 0.00 | 0.00 | 0.00 | 50 | 1012.9 |
| 20260509155604 | 66 | 307 | 1.0 | 3.0 | 0.00 | 0.00 | 0.00 | 55 | 1012.8 |
| 20260509155104 | 65 | 307 | 2.0 | 3.0 | 0.00 | 0.00 | 0.00 | 57 | 1012.9 |
| 20260509154604 | 65 | 28 | 2.0 | 3.0 | 0.00 | 0.00 | 0.00 | 58 | 1012.9 |
| 20260509154104 | 65 | 57 | 2.0 | 3.0 | 0.00 | 0.00 | 0.00 | 59 | 1012.9 |
| 20260509153604 | 64 | 57 | 1.0 | 3.0 | 0.00 | 0.00 | 0.00 | 59 | 1013.0 |
| 20260509153104 | 64 | 60 | 2.0 | 3.0 | 0.00 | 0.00 | 0.00 | 60 | 1013.0 |
| 20260509152604 | 64 | 67 | 2.0 | 3.0 | 0.00 | 0.00 | 0.00 | 62 | 1013.0 |
| 20260509152104 | 63 | 68 | 1.0 | 2.0 | 0.00 | 0.00 | 0.00 | 62 | 1013.0 |
| 20260509151607 | 63 | 68 | 1.0 | 3.0 | 0.00 | 0.00 | 0.00 | 63 | 1013.0 |
| 20260509151104 | 63 | 68 | 2.0 | 3.0 | 0.00 | 0.00 | 0.00 | 64 | 1013.0 |
| 20260509150604 | 62 | 68 | 0.0 | 3.0 | 0.00 | 0.00 | 0.00 | 65 | 1013.0 |
| 20260509145103 | 63 | 68 | 1.0 | 2.0 | 0.00 | 0.00 | 0.00 | 64 | 1013.0 |
| 20260509144604 | 63 | 68 | 0.0 | 1.0 | 0.00 | 0.00 | 0.00 | 66 | 1013.0 |
| 20260509144104 | 62 | 68 | 0.0 | 1.0 | 0.00 | 0.00 | 0.00 | 64 | 1013.0 |
| 20260509143104 | 62 | 68 | 0.0 | 1.0 | 0.00 | 0.00 | 0.00 | 62 | 1013.0 |
| 20260509142604 | 62 | 68 | 0.0 | 1.0 | 0.00 | 0.00 | 0.00 | 61 | 1013.0 |
| 20260509142106 | 62 | 68 | 0.0 | 0.0 | 0.00 | 0.00 | 0.00 | 61 | 1012.9 |
| 20260509141604 | 61 | 68 | 0.0 | 0.0 | 0.00 | 0.00 | 0.00 | 59 | 1012.8 |
| 20260509141104 | 61 | 68 | 0.0 | 1.0 | 0.00 | 0.00 | 0.00 | 58 | 1012.7 |
| 20260509140605 | 60 | 68 | 0.0 | 1.0 | 0.00 | 0.00 | 0.00 | 56 | 1012.7 |
| 20260509140104 | 60 | 68 | 0.0 | 1.0 | 0.00 | 0.00 | 0.00 | 54 | 1012.8 |
| 20260509135604 | 59 | 68 | 0.0 | 1.0 | 0.00 | 0.00 | 0.00 | 54 | 1012.8 |
| 20260509135104 | 58 | 67 | 0.0 | 1.0 | 0.00 | 0.00 | 0.00 | 53 | 1012.8 |
| 20260509134605 | 58 | 69 | 0.0 | 1.0 | 0.00 | 0.00 | 0.00 | 52 | 1012.8 |
| 20260509134103 | 58 | 69 | 0.0 | 1.0 | 0.00 | 0.00 | 0.00 | 52 | 1012.8 |
| 20260509133605 | 58 | 69 | 0.0 | 1.0 | 0.00 | 0.00 | 0.00 | 50 | 1012.8 |
| 20260509133104 | 58 | 68 | 0.0 | 1.0 | 0.00 | 0.00 | 0.00 | 48 | 1012.8 |
| 20260509132604 | 58 | 68 | 0.0 | 2.0 | 0.00 | 0.00 | 0.00 | 48 | 1012.7 |
| 20260509132104 | 58 | 57 | 0.0 | 2.0 | 0.00 | 0.00 | 0.00 | 49 | 1012.7 |
| 20260509131606 | 58 | 57 | 0.0 | 1.0 | 0.00 | 0.00 | 0.00 | 51 | 1012.7 |
| 20260509131104 | 58 | 60 | 0.0 | 1.0 | 0.00 | 0.00 | 0.00 | 55 | 1012.7 |
| 20260509130605 | 58 | 59 | 0.0 | 1.0 | 0.00 | 0.00 | 0.00 | 61 | 1012.7 |
| 20260509130104 | 58 | 64 | 0.0 | 1.0 | 0.00 | 0.00 | 0.00 | 61 | 1012.7 |
| 20260509125604 | 58 | 65 | 0.0 | 1.0 | 0.00 | 0.00 | 0.00 | 58 | 1012.6 |
| 20260509125104 | 57 | 65 | 0.0 | 0.0 | 0.00 | 0.00 | 0.00 | 58 | 1012.6 |
| 20260509124604 | 57 | 65 | 0.0 | 1.0 | 0.00 | 0.00 | 0.00 | 60 | 1012.6 |
| 20260509124104 | 58 | 65 | 0.0 | 1.0 | 0.00 | 0.00 | 0.00 | 63 | 1012.6 |
| 20260509123604 | 58 | 65 | 1.0 | 1.0 | 0.00 | 0.00 | 0.00 | 67 | 1012.5 |
| 20260509123104 | 58 | 61 | 0.0 | 1.0 | 0.00 | 0.00 | 0.00 | 68 | 1012.6 |
| 20260509122606 | 58 | 61 | 0.0 | 0.0 | 0.00 | 0.00 | 0.00 | 68 | 1012.5 |
| 20260509122104 | 59 | 61 | 0.0 | 1.0 | 0.00 | 0.00 | 0.00 | 68 | 1012.5 |
| 20260509121607 | 59 | 61 | 0.0 | 1.0 | 0.00 | 0.00 | 0.00 | 68 | 1012.5 |
| 20260509121104 | 59 | 61 | 0.0 | 1.0 | 0.00 | 0.00 | 0.00 | 69 | 1012.4 |
| 20260509120604 | 59 | 62 | 0.0 | 1.0 | 0.00 | 0.00 | 0.00 | 70 | 1012.3 |
| 20260509120104 | 59 | 61 | 0.0 | 1.0 | 0.00 | 0.00 | 0.00 | 70 | 1012.3 |
| 20260509115604 | 59 | 61 | 0.0 | 1.0 | 0.00 | 0.00 | 0.00 | 69 | 1012.4 |
| 20260509115103 | 59 | 61 | 0.0 | 1.0 | 0.00 | 0.00 | 0.00 | 69 | 1012.4 |
| 20260509114605 | 59 | 61 | 0.0 | 1.0 | 0.00 | 0.00 | 0.00 | 69 | 1012.4 |
| 20260509113603 | 60 | 60 | 0.0 | 1.0 | 0.00 | 0.00 | 0.00 | 68 | 1012.4 |
| 20260509113104 | 60 | 57 | 0.0 | 1.0 | 0.00 | 0.00 | 0.00 | 68 | 1012.5 |
| 20260509112604 | 60 | 57 | 0.0 | 1.0 | 0.00 | 0.00 | 0.00 | 67 | 1012.5 |
| 20260509112104 | 59 | 57 | 1.0 | 1.0 | 0.00 | 0.00 | 0.00 | 66 | 1012.6 |
| 20260509111607 | 59 | 53 | 0.0 | 1.0 | 0.00 | 0.00 | 0.00 | 66 | 1012.5 |
| 20260509111103 | 60 | 51 | 0.0 | 1.0 | 0.00 | 0.00 | 0.00 | 69 | 1012.4 |
| 20260509110604 | 60 | 51 | 0.0 | 1.0 | 0.00 | 0.00 | 0.00 | 69 | 1012.4 |
| 20260509110105 | 60 | 37 | 0.0 | 1.0 | 0.00 | 0.00 | 0.00 | 69 | 1012.6 |
| 20260509105604 | 60 | 51 | 0.0 | 1.0 | 0.00 | 0.00 | 0.00 | 69 | 1012.6 |
| 20260509105104 | 60 | 36 | 0.0 | 1.0 | 0.00 | 0.00 | 0.00 | 68 | 1012.7 |
| 20260509104603 | 60 | 48 | 0.0 | 1.0 | 0.00 | 0.00 | 0.00 | 68 | 1012.6 |
| 20260509104108 | 60 | 48 | 0.0 | 2.0 | 0.00 | 0.00 | 0.00 | 67 | 1012.7 |
| 20260509103605 | 60 | 47 | 0.0 | 2.0 | 0.00 | 0.00 | 0.00 | 67 | 1012.7 |
| 20260509103104 | 60 | 42 | 1.0 | 2.0 | 0.00 | 0.00 | 0.00 | 68 | 1012.7 |
| 20260509102606 | 60 | 36 | 0.0 | 2.0 | 0.00 | 0.00 | 0.00 | 70 | 1012.7 |
| 20260509102104 | 60 | 35 | 0.0 | 2.0 | 0.00 | 0.00 | 0.00 | 70 | 1012.7 |
| 20260509101606 | 60 | 27 | 1.0 | 2.0 | 0.00 | 0.00 | 0.00 | 70 | 1012.8 |
| 20260509101104 | 60 | 354 | 0.0 | 1.0 | 0.00 | 0.00 | 0.00 | 70 | 1012.8 |
| 20260509095604 | 60 | 355 | 0.0 | 0.0 | 0.00 | 0.00 | 0.00 | 70 | 1012.8 |
| 20260509095104 | 60 | 355 | 0.0 | 0.0 | 0.00 | 0.00 | 0.00 | 71 | 1012.8 |
| 20260509094604 | 60 | 355 | 0.0 | 0.0 | 0.00 | 0.00 | 0.00 | 71 | 1013.0 |
| 20260509094104 | 60 | 355 | 0.0 | 0.0 | 0.00 | 0.00 | 0.00 | 71 | 1013.0 |
| 20260509093604 | 60 | 355 | 0.0 | 1.0 | 0.00 | 0.00 | 0.00 | 70 | 1013.0 |
| 20260509093105 | 60 | 355 | 0.0 | 1.0 | 0.00 | 0.00 | 0.00 | 71 | 1013.1 |
| 20260509092605 | 60 | 355 | 0.0 | 2.0 | 0.00 | 0.00 | 0.00 | 71 | 1013.1 |
| 20260509092105 | 60 | 355 | 0.0 | 2.0 | 0.00 | 0.00 | 0.00 | 70 | 1013.2 |
| 20260509091605 | 61 | 349 | 0.0 | 1.0 | 0.00 | 0.00 | 0.00 | 70 | 1013.2 |
| 20260509091104 | 61 | 349 | 0.0 | 1.0 | 0.00 | 0.00 | 0.00 | 70 | 1013.2 |